Regional Weather Roundup
Issued by NWS

Home | Current Version | Previous Version | Graphics & Text | Print | Product List | Glossary On
Versions: 1 2 3 4 5 6 7 8 9 10 11 12 13 14 15 16 17 18 19 20 21 22 23 24 25 26 27 28 29 30 31 32 33 34 35 36 37 38 39 40 41 42 43 44 45 46 47 48 49 50
104
ASUS44 KLIX 290311
RWRLA
LOUISIANA WEATHER ROUNDUP
NATIONAL WEATHER SERVICE NEW ORLEANS LA
1000 PM CDT SAT MAR 28 2015

NOTE: "FAIR" INDICATES FEW OR NO CLOUDS BELOW 12,000 FEET WITH NO
      SIGNIFICANT WEATHER AND/OR OBSTRUCTIONS TO VISIBILITY.
      SKY/WX - SKY CONDITION AND SIGNIFICANT WEATHER.
      TMP - AIR TEMPERATURE.    DP   - DEWPOINT TEMPERATURE.
      RH  - RELATIVE HUMIDITY.  PRES - PRESSURE.
      HX  - HEAT INDEX.         WCI  - WIND CHILL INDEX.

*  THESE STATIONS ARE NOT NWS OR FAA STATIONS AND ARE NOT UNDER
   NWS QUALITY CONTROL.

LAZ040-048-061>063-065-066-069-290400-
SOUTHEAST LOUISIANA

CITY           SKY/WX    TMP DP  RH WIND       PRES   REMARKS
N.O. AUDUBON   NOT AVBL
N.O. INTL ARPT CLEAR     58  48  69 SE8       30.23R
N.O. LAKEFRONT CLEAR     60  49  66 SE8       30.24R
SLIDELL        CLEAR     53  48  83 CALM      30.23R
BATON ROUGE    CLEAR     58  49  72 SE6       30.20R
BOOTHVILLE     CLEAR     57  50  77 E6        30.25R
BELLE CHASSE   CLEAR     57  50  77 SE6       30.23R
BOGALUSA*        N/A     57  46  65 E5        30.25R
GALLIANO*      CLEAR     59  55  84 CALM      30.23S
NEW ROADS*     FAIR      62  50  66 S5        30.19R
GONZALES*      FAIR      60  52  73 SE6       30.21R
HAMMOND*       CLEAR     55  48  76 SE3       30.24R
HOUMA*         CLEAR     54  52  92 E5        30.22R
PORT FOURCHON* CLEAR     64  55  72 SE10      30.25S

$$

LAZ041-044-053-054-290400-
SOUTHWEST LOUISIANA

CITY           SKY/WX    TMP DP  RH WIND       PRES   REMARKS
LAKE CHARLES   CLEAR     62  58  86 S5        30.15R
LAFAYETTE      CLEAR     61  55  81 S7        30.18R
PATTERSON      CLEAR     57  52  82 SE6       30.20R
SALT POINT       N/A     61  56  83 SE7       30.19R
NEW IBERIA     CLEAR     58  54  86 SE8       30.19R
CHENAULT AIRPK CLEAR     61  57  88 S6          N/A

$$

LAZ027-028-290400-
CENTRAL LOUISIANA

CITY           SKY/WX    TMP DP  RH WIND       PRES   REMARKS
FORT POLK      CLEAR     64  55  74 SE6       30.14R
ALEXANDRIA INT CLEAR     63  53  70 S6        30.14R
ALEXANDRIA     CLEAR     62  52  69 S3        30.16R

$$

LAZ001-002-290400-
NORTHWEST LOUISIANA

CITY           SKY/WX    TMP DP  RH WIND       PRES   REMARKS
SHREVEPORT     CLEAR     63  46  54 E15G23    30.11R
BARKSDALE AFB  CLEAR     61  44  52 E10G20    30.12R
DTN SHREVEPORT CLEAR     62  44  51 E12       30.12R

$$

LAZ014-016-290400-
NORTHEAST LOUISIANA

CITY           SKY/WX    TMP DP  RH WIND       PRES   REMARKS
MONROE         CLEAR     51  37  58 NE10      30.22R
TALLULAH       LGT RAIN  52  35  52 E14       30.23R

$$




USA.gov is the U.S. government's official web portal to all federal, state and local government web resources and services.